Stations météo

Publicité
Clermont-Ferrand, France (7460): Température de l'air & dewpoint: 13.03.2019 06:00:00 - 19.03.2019 06:00:00 (CET)Clermont-Ferrand, France (7460): Température de l'air 5cm: 13.03.2019 06:00:00 - 19.03.2019 06:00:00 (CET)Clermont-Ferrand, France (7460): Température de l'air -20cm & Température de l'air -100cm: 13.03.2019 06:00:00 - 19.03.2019 06:00:00 (CET)Clermont-Ferrand, France (7460): Vitesse du vent & gusts: 13.03.2019 06:00:00 - 19.03.2019 06:00:00 (CET)Clermont-Ferrand, France (7460): Direction du vent: 13.03.2019 06:00:00 - 19.03.2019 06:00:00 (CET)Clermont-Ferrand, France (7460): reduced air pressure: 13.03.2019 06:00:00 - 19.03.2019 06:00:00 (CET)Clermont-Ferrand, France (7460): visibility: 13.03.2019 06:00:00 - 19.03.2019 06:00:00 (CET)Clermont-Ferrand, France (7460): Ensoleillement: 13.03.2019 06:00:00 - 19.03.2019 06:00:00 (CET)Clermont-Ferrand, France (7460): Quantités de précipitations: 13.03.2019 06:00:00 - 19.03.2019 06:00:00 (CET)
Date & Time tt [°C] td [°C] tt 5cm [°C] tt -20cm [°C] tt -100cm [°C] ff [km/h] ff [knt] fx [km/h] fx [knt] dd ppp [hPa] vv [km] sd [min] rr [mm]
19.03.2019 06:00:00 4,4 2,7 3,8 9,3 9,8 5 3 10 5 N 1026,0 15 0 0,0
19.03.2019 05:00:00 4,5 2,7 3,8 9,3 9,8 4 2 6 3 N 1025,7 40 0 0,0
19.03.2019 04:00:00 4,3 2,5 3,7 9,3 9,8 5 3 15 8 NW 1025,7 47 0 0,0
19.03.2019 03:00:00 4,6 2,1 3,8 9,3 9,8 6 3 10 5 NNE 1025,6 48 0 0,0
19.03.2019 02:00:00 4,4 2,3 3,7 9,3 9,8 5 3 11 6 NW 1025,6 34 0 0,2
19.03.2019 01:00:00 4,4 2,1 3,8 9,3 9,8 3 2 13 7 N 1025,8 20 0 0,4
19.03.2019 00:00:00 5,0 2,0 4,1 9,3 9,8 10 5 25 14 NE 1025,8 16 0 0,0
18.03.2019 23:00:00 6,1 1,6 4,1 9,3 9,8 15 8 26 14 NNW 1025,5 20 0 0,0
18.03.2019 22:00:00 5,5 2,1 3,1 9,3 9,8 5 3 9 5 ENE 1025,2 19 0 0,0
18.03.2019 21:00:00 5,9 2,0 3,1 9,3 9,8 5 3 7 4 ESE 1024,9 23 0 0,0
18.03.2019 20:00:00 6,0 1,7 3,7 9,3 9,8 4 2 8 4 S 1024,8 43 0 0,0
18.03.2019 19:00:00 6,3 2,4 5,4 9,3 9,8 5 3 21 12 ESE 1024,7 60 0 0,0
18.03.2019 18:00:00 6,7 2,4 6,3 9,2 9,7 16 8 49 26 N 1024,3 55 0 0,6
18.03.2019 17:00:00 9,7 -0,2 10,6 9,3 9,8 20 11 34 18 NNE 1022,9 34 7 0,0
18.03.2019 16:00:00 10,8 -2,3 10,4 9,3 9,8 21 12 37 20 NW 1022,8 46 21 0,0
18.03.2019 15:00:00 10,8 -0,7 10,6 9,3 9,8 17 9 31 17 NNW 1023,2 53 16 0,0
18.03.2019 14:00:00 10,5 -1,9 10,5 9,4 9,8 14 8 35 19 NNW 1023,6 20 46 0,0
18.03.2019 13:00:00 8,6 -1,8 7,7 9,4 9,8 20 11 38 20 NW 1024,5 34 11 0,0
18.03.2019 12:00:00 8,4 -0,4 9,7 9,4 9,7 18 10 32 18 N 1024,5 42 2 0,0
18.03.2019 11:00:00 8,1 0,1 8,6 9,4 9,7 15 8 38 20 NW 1024,5 41 13 0,0
18.03.2019 10:00:00 7,0 0,9 7,4 9,5 9,7 19 10 37 20 WNW 1024,6 58 18 0,0
18.03.2019 09:00:00 6,0 -0,1 4,3 9,5 9,7 8 4 17 9 W 1024,0 56 4 0,0
18.03.2019 08:00:00 3,8 0,1 0,5 9,6 9,8 6 3 10 6 SW 1023,9 60 0 0,0
18.03.2019 07:00:00 1,9 -1,2 -1,9 9,6 9,7 3 1 8 4 E 1024,2 60 0 0,0
18.03.2019 06:00:00 1,9 -2,2 -1,6 9,6 9,7 5 3 21 11 SE 1023,8 60 0 0,0
18.03.2019 05:00:00 2,6 -2,3 -1,6 9,6 9,7 4 2 24 13 SE 1023,1 60 0 0,0
18.03.2019 04:00:00 4,0 -1,6 2,1 9,6 9,7 13 7 25 14 NW 1022,5 60 0 0,0
18.03.2019 03:00:00 4,0 -0,2 1,2 9,6 9,7 13 7 25 14 NNW 1022,1 60 0 0,0
18.03.2019 02:00:00 4,8 -0,2 0,9 9,6 9,7 4 2 29 15 NNE 1022,1 60 0 0,0
18.03.2019 01:00:00 4,8 0,4 2,6 9,6 9,7 18 10 35 19 NNW 1022,0 44 0 0,0
18.03.2019 00:00:00 5,5 -1,7 2,7 9,6 9,7 18 10 42 23 W 1021,0 60 0 0,0
17.03.2019 23:00:00 6,2 -1,0 2,9 9,6 9,7 8 5 28 15 S 1021,2 60 0 0,0
17.03.2019 22:00:00 6,5 -1,2 4,7 9,6 9,7 16 8 59 32 WSW 1020,7 60 0 0,0
17.03.2019 21:00:00 7,1 -1,6 4,0 9,6 9,7 14 8 39 21 WNW 1020,1 60 0 0,0
17.03.2019 20:00:00 6,9 -1,3 5,2 9,6 9,7 21 12 50 27 W 1019,4 60 0 0,0
17.03.2019 19:00:00 7,3 -0,7 6,6 9,6 9,7 25 14 47 25 W 1018,7 60 0 0,0
17.03.2019 18:00:00 9,0 -1,2 8,4 9,6 9,7 19 10 37 20 W 1017,3 58 15 0,0
17.03.2019 17:00:00 9,5 0,9 6,6 9,6 9,7 16 9 55 30 WNW 1017,0 27 28 0,0
17.03.2019 16:00:00 8,5 2,7 5,8 9,6 9,7 20 11 49 27 W 1016,9 52 0 0,2
17.03.2019 15:00:00 9,7 4,1 7,7 9,6 9,7 18 10 37 20 W 1016,1 35 4 0,4
17.03.2019 14:00:00 9,0 3,6 7,5 9,6 9,7 21 11 40 22 WNW 1016,1 26 5 0,4
17.03.2019 13:00:00 8,5 3,5 8,4 9,6 9,7 24 13 52 28 NNW 1015,5 31 19 0,0
17.03.2019 12:00:00 13,7 4,6 15,3 9,6 9,7 34 18 58 32 WSW 1013,2 18 39 0,0
17.03.2019 11:00:00 14,4 4,9 11,1 9,7 9,7 18 10 41 22 S 1012,5 54 38 0,0
17.03.2019 10:00:00 10,9 3,2 9,6 9,7 9,7 18 10 45 25 S 1013,2 52 0 0,0
17.03.2019 09:00:00 9,4 3,6 9,3 9,7 9,7 11 6 48 26 SSE 1014,1 42 0 0,0
17.03.2019 08:00:00 11,3 2,3 9,5 9,7 9,7 18 10 56 30 SSW 1012,4 47 4 0,0
17.03.2019 07:00:00 11,3 2,6 1,5 9,7 9,7 11 6 19 10 W 1010,9 60 0 0,0
17.03.2019 06:00:00 7,2 -5,2 3,3 9,7 9,7 3 1 13 7 NNW 1011,0 60 0 0,0
17.03.2019 05:00:00 8,6 -6,0 5,9 9,7 9,7 8 4 39 21 WSW 1010,6 60 0 0,0
17.03.2019 04:00:00 10,4 -6,0 6,0 9,7 9,7 18 10 31 17 SSW 1010,6 60 0 0,0
17.03.2019 03:00:00 11,0 -5,9 7,1 9,7 9,7 21 11 31 17 S 1010,8 60 0 0,0
17.03.2019 02:00:00 13,2 -9,3 8,8 9,7 9,7 20 11 37 20 SW 1011,2 60 0 0,0
17.03.2019 01:00:00 11,2 -6,7 8,5 9,7 9,7 11 6 30 16 SSW 1011,8 60 0 0,0
17.03.2019 00:00:00 11,8 -5,7 4,6 9,6 9,7 14 8 31 17 SW 1012,7 60 0 0,0
16.03.2019 23:00:00 9,2 -3,7 0,8 9,6 9,7 16 9 24 13 S 1013,6 60 0 0,0
16.03.2019 22:00:00 11,3 -4,4 0,3 9,5 9,7 4 2 20 11 S 1013,2 48 0 0,0
16.03.2019 21:00:00 12,3 -4,8 3,4 9,4 9,7 12 7 21 11 SW 1012,9 35 0 0,0
16.03.2019 20:00:00 11,9 -3,1 6,7 9,4 9,6 13 7 19 10 SSE 1013,1 60 0 0,0
16.03.2019 19:00:00 17,3 -5,9 8,1 9,4 9,7 6 3 15 8 S 1012,6 60 26 0,0
16.03.2019 18:00:00 21,5 1,2 23,2 9,3 9,7 4 2 9 5 W 1012,4 19 60 0,0
16.03.2019 17:00:00 22,0 2,6 26,6 9,3 9,7 4 2 16 9 SSE 1012,8 49 60 0,0
16.03.2019 16:00:00 20,8 4,8 24,5 9,3 9,7 8 5 21 12 SSE 1014,0 57 60 0,0
16.03.2019 15:00:00 19,4 4,7 24,5 9,3 9,7 10 6 29 16 SE 1015,3 54 60 0,0
16.03.2019 14:00:00 17,0 5,0 21,9 9,3 9,7 14 7 24 13 S 1017,0 58 60 0,0
16.03.2019 13:00:00 15,5 4,8 20,3 9,3 9,7 6 4 16 9 ESE 1018,5 28 60 0,0
16.03.2019 12:00:00 13,6 4,2 18,7 9,3 9,7 3 2 14 8 NW 1019,9 51 60 0,0
16.03.2019 11:00:00 12,4 4,1 17,3 9,3 9,6 4 2 17 9 SSE 1020,8 39 60 0,0
16.03.2019 10:00:00 10,6 4,3 13,6 9,4 9,7 14 8 28 15 S 1021,6 32 60 0,0
16.03.2019 09:00:00 8,6 4,6 9,7 9,4 9,7 8 4 15 8 SSE 1022,3 31 60 0,0
16.03.2019 08:00:00 5,3 3,1 0,0 9,4 9,7 4 2 10 6 SSW 1023,2 43 46 0,0
16.03.2019 07:00:00 2,7 1,1 -1,0 9,4 9,7 4 2 8 4 W 1023,5 20 0 0,0
16.03.2019 06:00:00 4,3 2,5 0,1 9,4 9,7 6 3 11 6 SE 1023,6 44 0 0,0
16.03.2019 05:00:00 4,7 2,2 1,9 9,4 9,7 7 4 14 7 ESE 1023,6 59 0 0,0
16.03.2019 04:00:00 6,2 3,0 2,3 9,4 9,6 4 2 19 10 SW 1023,5 60 0 0,0
16.03.2019 03:00:00 8,8 4,0 2,9 9,3 9,7 16 9 26 14 W 1023,9 60 0 0,0
16.03.2019 02:00:00 8,3 3,7 4,0 9,3 9,6 10 5 19 11 SW 1024,2 60 0 0,0
16.03.2019 01:00:00 9,2 4,2 5,7 9,3 9,6 9 5 22 12 SSW 1024,7 60 0 0,0
16.03.2019 00:00:00 10,0 5,8 9,0 9,2 9,7 14 8 19 10 SW 1025,0 60 0 0,0
15.03.2019 23:00:00 10,1 6,1 8,5 9,2 9,6 7 4 11 6 SSE 1025,1 60 0 0,0
15.03.2019 22:00:00 9,7 7,5 8,8 9,2 9,7 11 6 14 7 SE 1025,2 60 0 0,0
15.03.2019 21:00:00 10,4 6,9 9,3 9,2 9,6 11 6 21 12 NNW 1024,9 6 0 0,0
15.03.2019 20:00:00 12,0 5,2 11,2 9,1 9,6 16 9 36 19 W 1024,1 59 0 0,0
15.03.2019 19:00:00 12,3 5,0 11,0 9,1 9,6 13 7 29 15 W 1023,6 60 0 0,0
15.03.2019 18:00:00 12,4 6,4 11,0 9,1 9,7 10 6 29 16 NW 1023,0 41 3 0,0
15.03.2019 17:00:00 13,4 5,8 13,5 9,0 9,6 16 8 43 23 WNW 1022,6 58 0 0,0
15.03.2019 16:00:00 13,9 5,8 14,5 9,0 9,6 24 13 41 22 WNW 1022,3 54 6 0,0
15.03.2019 15:00:00 14,9 6,7 12,6 9,0 9,6 17 9 41 22 WNW 1022,2 53 8 0,0
15.03.2019 14:00:00 13,8 6,4 13,4 9,0 9,6 18 10 38 20 WNW 1022,5 30 17 0,0
15.03.2019 13:00:00 13,7 7,9 12,5 9,0 9,6 13 7 28 15 SW 1023,1 54 1 0,0
15.03.2019 12:00:00 13,7 6,3 14,2 9,0 9,6 9 5 28 15 W 1023,1 56 0 0,0
15.03.2019 11:00:00 13,5 6,8 13,4 9,0 9,6 16 9 42 23 W 1023,0 46 0 0,0
15.03.2019 10:00:00 13,0 6,3 12,4 9,0 9,6 15 8 35 19 WNW 1022,4 55 0 0,0
15.03.2019 09:00:00 12,2 6,7 11,2 9,0 9,6 15 8 35 19 W 1022,3 58 0 0,0
15.03.2019 08:00:00 11,5 6,2 10,5 9,0 9,6 14 8 38 21 W 1022,1 60 0 0,0
15.03.2019 07:00:00 11,1 6,2 9,9 9,0 9,6 14 8 35 19 W 1021,9 60 0 0,0
15.03.2019 06:00:00 11,0 6,1 9,5 9,0 9,6 19 11 38 21 W 1021,0 60 0 0,0
15.03.2019 05:00:00 10,7 6,3 9,9 9,0 9,6 16 9 42 23 W 1020,8 60 0 0,0
15.03.2019 04:00:00 10,9 6,2 10,3 9,0 9,6 22 12 44 24 W 1020,3 60 0 0,0
15.03.2019 03:00:00 10,9 6,0 10,0 9,0 9,6 24 13 40 22 W 1020,4 60 0 0,0
15.03.2019 02:00:00 10,7 6,1 8,5 9,0 9,6 21 11 34 19 W 1020,8 60 0 0,0
15.03.2019 01:00:00 10,4 6,2 8,3 8,9 9,6 14 8 38 21 WSW 1020,6 50 0 0,2
15.03.2019 00:00:00 10,4 5,8 8,2 8,9 9,6 18 10 41 22 W 1020,1 55 0 0,2
14.03.2019 23:00:00 10,2 5,6 8,1 8,9 9,6 14 8 41 22 W 1020,4 20 0 0,2
14.03.2019 22:00:00 10,2 5,2 8,0 9,0 9,6 14 8 44 24 W 1019,9 19 0 0,0
14.03.2019 21:00:00 10,0 5,0 7,5 8,9 9,6 22 12 53 29 W 1019,8 19 0 0,0
14.03.2019 20:00:00 9,5 4,9 7,4 8,9 9,6 13 7 55 30 W 1019,6 13 0 0,2
14.03.2019 19:00:00 9,6 4,6 7,4 8,9 9,6 19 10 74 40 W 1018,5 24 0 0,6
14.03.2019 18:00:00 10,3 4,2 8,2 8,9 9,6 32 17 64 35 WSW 1017,6 25 0 0,0
14.03.2019 17:00:00 11,1 4,3 11,0 8,9 9,6 24 13 68 37 SW 1018,3 20 3 0,0
14.03.2019 16:00:00 10,6 3,8 11,2 8,9 9,6 29 16 77 42 SW 1018,6 56 0 0,0
14.03.2019 15:00:00 10,5 3,3 10,5 8,9 9,6 32 17 66 36 WSW 1018,8 50 0 0,0
14.03.2019 14:00:00 9,5 2,8 9,0 8,9 9,6 26 14 76 41 WSW 1019,3 50 0 0,0
14.03.2019 13:00:00 9,6 3,6 8,9 9,0 9,6 19 11 51 28 W 1021,0 41 3 0,0
14.03.2019 12:00:00 8,7 2,9 8,0 9,0 9,6 9 5 36 19 WSW 1022,3 33 0 0,2
14.03.2019 11:00:00 8,4 2,0 8,9 9,0 9,6 24 13 39 21 WSW 1022,7 36 0 0,0
14.03.2019 10:00:00 7,8 1,0 7,9 9,0 9,6 13 7 39 21 WSW 1023,7 52 0 0,0
14.03.2019 09:00:00 7,4 1,7 6,3 9,0 9,6 19 11 34 18 W 1024,1 44 0 0,0
14.03.2019 08:00:00 6,8 1,7 3,4 9,0 9,6 9 5 24 13 WNW 1024,0 43 0 0,0
14.03.2019 07:00:00 6,0 1,7 4,0 9,0 9,6 8 4 28 15 W 1024,0 18 0 0,0
14.03.2019 06:00:00 6,1 1,6 3,5 9,0 9,6 14 7 29 15 WNW 1024,2 59 0 0,0
14.03.2019 05:00:00 4,8 2,3 3,4 9,1 9,6 6 3 16 8 WSW 1024,3 60 0 0,0
14.03.2019 04:00:00 5,4 2,4 4,4 9,0 9,6 5 3 18 10 WNW 1024,8 9 0 0,4
14.03.2019 03:00:00 7,0 0,6 5,5 9,1 9,6 7 4 28 15 NW 1024,8 52 0 0,0
14.03.2019 02:00:00 7,1 0,5 6,3 9,0 9,6 10 5 31 17 W 1024,8 50 0 0,0
14.03.2019 01:00:00 7,4 0,8 6,1 9,0 9,6 21 11 37 20 W 1024,5 45 0 0,0
14.03.2019 00:00:00 6,9 1,0 4,3 9,0 9,6 14 7 29 15 W 1024,4 51 0 0,0
13.03.2019 23:00:00 6,3 2,0 4,6 9,0 9,6 11 6 52 28 WNW 1024,0 19 0 0,0
13.03.2019 22:00:00 7,4 0,8 6,3 9,0 9,6 17 9 42 23 W 1023,0 53 0 0,0
13.03.2019 21:00:00 7,6 0,3 5,8 9,0 9,6 22 12 35 19 W 1022,3 51 0 0,0
13.03.2019 20:00:00 7,8 -1,2 5,3 9,0 9,6 16 8 40 21 WSW 1021,7 60 0 0,0
13.03.2019 19:00:00 8,9 -2,4 6,8 9,0 9,6 13 7 34 19 WNW 1021,0 60 5 0,0
13.03.2019 18:00:00 9,9 -3,1 10,2 9,0 9,6 18 10 46 25 NW 1020,3 50 39 0,0
13.03.2019 17:00:00 10,3 -3,4 10,7 9,0 9,6 21 12 45 24 WNW 1020,1 35 26 0,0
13.03.2019 16:00:00 10,2 -1,8 10,8 9,0 9,6 20 11 54 29 WNW 1019,9 48 38 0,0
13.03.2019 15:00:00 9,4 0,0 9,0 9,0 9,6 25 13 51 27 WNW 1020,3 20 14 0,0
13.03.2019 14:00:00 9,2 -1,3 9,9 9,0 9,6 27 15 50 27 WNW 1020,2 41 3 0,0
13.03.2019 13:00:00 10,4 -0,7 12,2 9,0 9,6 20 11 40 22 WNW 1020,2 27 52 0,0
13.03.2019 12:00:00 7,6 1,9 7,9 9,0 9,6 30 16 55 30 W 1021,3 33 41 0,0
13.03.2019 11:00:00 8,6 0,6 9,6 9,0 9,6 28 15 44 24 W 1021,2 20 40 0,0
13.03.2019 10:00:00 7,6 -0,4 7,7 9,0 9,6 23 12 46 25 W 1021,5 37 42 0,0
13.03.2019 09:00:00 6,9 -0,3 6,0 9,1 9,6 13 7 48 26 W 1021,6 55 17 0,0
13.03.2019 08:00:00 6,0 -0,1 2,6 9,0 9,6 29 16 49 26 W 1021,6 43 19 0,0
13.03.2019 07:00:00 4,8 0,7 2,9 9,1 9,6 20 11 42 23 WSW 1021,6 15 0 0,2
13.03.2019 06:00:00 5,7 -0,4 4,6 9,0 9,6 21 11 36 19 WSW 1021,4 20 0 0,0

tt = Température de l'air
td = dewpoint
tt 5cm = Température de l'air 5cm
tt -20cm = Température de l'air -20cm
tt -100cm = Température de l'air -100cm
ff = Vitesse du vent
fx = gusts
dd = Direction du vent
ppp = reduced air pressure
vv = visibility
sd = Ensoleillement
rr = Quantités de précipitations

stations d'obs. à proximité